Regional Weather Roundup
Issued by NWS Goodland, KS

Home | Current Version | Previous Version | Text Only | Print | Product List | Glossary Off
Versions: 1 2 3 4 5 6 7 8 9 10 11 12 13 14 15 16 17 18 19 20 21 22 23 24 25 26 27 28 29 30 31 32 33 34 35 36 37 38 39 40 41 42 43 44 45 46 47 48 49 50

000
ASUS43 KGLD 231759
RWRGLD

GOODLAND FORECAST AREA HOURLY WEATHER ROUNDUP
NATIONAL WEATHER SERVICE GOODLAND KS
1200 PM MDT TUE SEP 23 2014

...OFFICIAL OBSERVATIONS...

CITY           SKY/WX    TMP DP  RH WIND       PRES   REMARKS
GOODLAND KS    SUNNY     79  57  46 E6        30.07S
HILL CITY KS   SUNNY     77  58  51 S13       30.03F
IMPERIAL NEB   SUNNY     82  49  31 NW15      30.01F
MCCOOK NEB     SUNNY     74  61  63 S8        30.01F
AKRON CO       PTSUNNY   73  54  51 W9        30.11F
BURLINGTON CO  SUNNY     79  50  36 VRB5      30.09S
LIMON CO       PTSUNNY   78  42  27 W8        30.14F
$$

...UNOFFICIAL OBSERVATIONS...

CITY           SKY/WX    TMP DP  RH WIND       PRES   REMARKS
COLBY KS       SUNNY     79  66  65 SW3       30.05F
GOVE KS          N/A     76  32  20 MISG        N/A
NORTON KS      SUNNY     73  55  53 S7G16     30.02F
SHARON SPRINGS   N/A     80  61  52 CALM        N/A
WAKEENEY KS      N/A     80  55  42 MISG        N/A
KIT CARSON CO    N/A     80  51  36 CALM        N/A
YUMA CO          N/A     76  55  48 W12         N/A
$$


USA.gov is the U.S. government's official web portal to all federal, state and local government web resources and services.